This demonstration page uses our WeatherBlox Daily Observations layout. Learn more.

Left ArrowRight Arrow

Hourly Observations for May 14, 2020

Temp ( °F °C ) Dew Point ( °F °C ) Humidity (%) Winds ( mph kmh ) Pressure ( in mb ) Visibility ( mi km ) Precip ( " mm )
12:15 am 00:15 Cloudy with Mist and Fog 53 11.8 52 11.2 96 96 E 3 6 29.81 1009 2.5 4.02335 0 0
12:35 am 00:35 Cloudy with Fog 53 11.4 52 10.9 97 97 E 7 11 29.79 1009 0.5 0.80467 0 0
12:55 am 00:55 Cloudy with Fog 52 11.1 51 10.7 97 97 E 6 9 29.79 1009 0.25 0.402335 0 0
1:15 am 01:15 Cloudy with Fog 52 10.9 51 10.5 97 97 ESE 7 11 29.81 1010 0.25 0.402335 0 0
1:35 am 01:35 Cloudy with Fog 52 11 51 10.6 97 97 E 6 9 29.81 1010 0.25 0.402335 0 0
1:55 am 01:55 Cloudy with Fog 52 11.1 51 10.8 98 98 ENE 5 7 29.82 1010 0.5 0.80467 0 0
2:15 am 02:15 Cloudy with Fog 52 11.1 51 10.8 98 98 NE 5 7 29.81 1010 0.25 0.402335 0 0
2:35 am 02:35 Cloudy with Fog 52 11 51 10.6 97 97 NNE 5 7 29.8 1009 0.5 0.80467 0 0
2:55 am 02:55 Cloudy with Fog 51 10.8 51 10.5 98 98 NE 6 9 29.81 1009 0.25 0.402335 0 0
3:15 am 03:15 Cloudy with Fog 51 10.8 51 10.5 98 98 NNE 5 7 29.81 1009 0.25 0.402335 0 0
3:35 am 03:35 Cloudy with Fog 52 11 51 10.6 97 97 NNE 6 9 29.79 1009 0.5 0.80467 0 0
3:55 am 03:55 Cloudy with Fog 52 11 51 10.7 98 98 NE 3 6 29.78 1009 0.5 0.80467 0 0
4:15 am 04:15 Cloudy with Mist and Fog 52 11.1 51 10.8 98 98 ENE 3 6 29.78 1009 2 3.21868 0 0
4:35 am 04:35 Cloudy with Mist and Fog 52 11.1 51 10.8 98 98 N 6 9 29.8 1009 4 6.43736 0 0
4:55 am 04:55 Cloudy with Mist and Fog 52 11 51 10.6 97 97 NNE 6 9 29.8 1009 3 4.82802 0 0
5:15 am 05:15 Cloudy with Mist and Fog 51 10.8 51 10.5 98 98 N 6 9 29.81 1009 2.5 4.02335 0 0
5:35 am 05:35 Cloudy with Mist and Fog 51 10.5 50 10.2 98 98 N 5 7 29.81 1009 1.25 2.011675 0 0
5:55 am 05:55 Cloudy with Mist and Fog 51 10.7 51 10.5 99 99 N 5 7 29.81 1009 4 6.43736 0 0
6:15 am 06:15 Cloudy with Mist and Fog 51 10.7 51 10.5 99 99 NNW 6 9 29.81 1009 5 8.0467 0 0
6:35 am 06:35 Cloudy with Mist and Fog 51 10.7 51 10.5 99 99 NNW 7 11 29.82 1010 5 8.0467 0 0
6:55 am 06:55 Cloudy with Mist and Fog 51 10.5 50 10.2 98 98 NNW 7 11 29.83 1010 5 8.0467 0 0
7:15 am 07:15 Cloudy with Mist and Fog 51 10.6 51 10.3 98 98 NNW 6 9 29.83 1010 5 8.0467 0 0
7:35 am 07:35 Cloudy 51 10.7 51 10.5 99 99 NNW 7 11 29.84 1010 7 11.26538 0 0
7:55 am 07:55 Cloudy 51 10.7 51 10.5 99 99 NNW 7 11 29.86 1011 7 11.26538 0 0
8:15 am 08:15 Cloudy 51 10.6 51 10.3 98 98 Calm 29.86 1011 10 16.0934 0 0
8:35 am 08:35 Cloudy 53 11.5 52 11.2 98 98 Calm 29.85 1011 10 16.0934 0 0
8:55 am 08:55 Cloudy 55 12.6 54 12.1 97 97 N 3 6 29.83 1010 10 16.0934 0 0
9:15 am 09:15 Cloudy 56 13.5 53 11.7 89 89 N 3 6 29.82 1010 10 16.0934 0 0
9:35 am 09:35 Cloudy 58 14.5 53 11.8 84 84 NE 7 11 29.82 1010 10 16.0934 0 0
9:55 am 09:55 Cloudy 59 15 53 11.4 79 79 NE 6 9 29.81 1009 10 16.0934 0 0
10:15 am 10:15 Mostly Cloudy 61 16.1 53 11.8 76 76 ENE 8 13 29.8 1009 10 16.0934 0 0
10:35 am 10:35 Partly Cloudy 63 17.1 54 12 72 72 NE 5 7 29.8 1009 10 16.0934 0 0
10:55 am 10:55 Sunny 64 17.8 55 12.8 73 73 NNE 5 7 29.79 1009 10 16.0934 0 0
11:15 am 11:15 Sunny 65 18.6 56 13.2 71 71 E 6 9 29.77 1008 10 16.0934 0 0
11:35 am 11:35 Sunny 67 19.7 56 13.2 66 66 NNE 5 7 29.76 1008 10 16.0934 0 0
11:55 am 11:55 Sunny 69 20.3 55 12.7 62 62 NNE 6 9 29.76 1008 10 16.0934 0 0
12:15 pm 12:15 Sunny 71 21.4 55 12.5 57 57 N 6 9 29.74 1007 10 16.0934 0 0
12:35 pm 12:35 Sunny 71 21.9 54 12.1 54 54 N 6 9 29.73 1007 10 16.0934 0 0
12:55 pm 12:55 Sunny 73 22.7 53 11.6 50 50 NNE 6 9 29.74 1007 10 16.0934 0 0
1:15 pm 13:15 Sunny 74 23.3 50 10.2 44 44 N 8 13 29.72 1006 10 16.0934 0 0
1:35 pm 13:35 Sunny 75 24 48 8.8 38 38 N 9 15 29.71 1006 10 16.0934 0 0
1:55 pm 13:55 Sunny 76 24.7 47 8.2 35 35 NNE 12 19 29.7 1006 10 16.0934 0 0
2:15 pm 14:15 Sunny 77 25.2 45 7.1 32 32 NNE 9 15 29.69 1005 10 16.0934 0 0
2:35 pm 14:35 Sunny 78 25.5 46 7.6 32 32 NNW 10 17 29.68 1005 10 16.0934 0 0
2:55 pm 14:55 Sunny 78 25.5 44 6.5 30 30 NNE 12 19 29.68 1005 10 16.0934 0 0
3:15 pm 15:15 Sunny 78 25.3 43 6.3 30 30 N 10 17 29.68 1005 10 16.0934 0 0
3:35 pm 15:35 Sunny 78 25.6 44 6.5 30 30 NE 3 6 29.67 1005 10 16.0934 0 0
3:55 pm 15:55 Sunny 79 26.1 44 6.7 29 29 N 6 9 29.67 1005 10 16.0934 0 0
4:15 pm 16:15 Sunny 79 26.3 43 6.2 28 28 NNW 6 9 29.67 1005 10 16.0934 0 0
4:35 pm 16:35 Sunny 79 26.2 43 6.1 28 28 NNW 5 7 29.66 1004 10 16.0934 0 0
4:55 pm 16:55 Sunny 80 26.5 43 6.3 28 28 N 7 11 29.66 1004 10 16.0934 0 0
5:15 pm 17:15 Sunny 80 26.5 43 6.2 27 27 NNE 12 19 29.66 1004 10 16.0934 0 0
5:35 pm 17:35 Sunny 79 26 43 5.9 28 28 NNW 8 13 29.66 1004 10 16.0934 0 0
5:55 pm 17:55 Sunny 79 26.2 43 6.2 28 28 NE 10 17 29.66 1004 10 16.0934 0 0
6:15 pm 18:15 Sunny 79 26.2 43 6.1 28 28 NNE 10 17 29.67 1005 10 16.0934 0 0
6:35 pm 18:35 Sunny 78 25.8 43 6.2 29 29 NE 9 15 29.68 1005 10 16.0934 0 0
6:55 pm 18:55 Sunny 78 25.4 43 6 29 29 NE 10 17 29.68 1005 10 16.0934 0 0
7:15 pm 19:15 Sunny 77 24.8 42 5.8 30 30 NNE 8 13 29.69 1005 10 16.0934 0 0
7:35 pm 19:35 Sunny 74 23.4 46 7.6 36 36 NE 10 17 29.71 1006 10 16.0934 0 0
7:55 pm 19:55 Sunny 74 23.4 46 8 37 37 ENE 10 17 29.71 1006 10 16.0934 0 0
8:15 pm 20:15 Sunny 72 22.3 48 9.1 43 43 ENE 9 15 29.72 1006 10 16.0934 0 0
8:35 pm 20:35 Sunny 71 21.5 48 9.1 45 45 ENE 9 15 29.74 1007 10 16.0934 0 0
8:55 pm 20:55 Clear 68 20 49 9.2 50 50 ENE 8 13 29.75 1007 10 16.0934 0 0
9:15 pm 21:15 Clear 66 19 48 9 52 52 ENE 6 9 29.77 1008 10 16.0934 0 0
9:35 pm 21:35 Clear 64 17.6 47 8.6 56 56 NE 5 7 29.79 1009 10 16.0934 0 0
9:55 pm 21:55 Clear 62 16.4 48 9 62 62 NNE 8 13 29.81 1009 10 16.0934 0 0
10:15 pm 22:15 Clear 60 15.8 47 8.3 61 61 NNE 3 6 29.81 1010 10 16.0934 0 0
10:35 pm 22:35 Clear 62 16.4 48 9 62 62 Calm 29.84 1010 10 16.0934 0 0
10:55 pm 22:55 Clear 60 15.7 49 9.6 67 67 NE 6 9 29.84 1011 10 16.0934 0 0
11:15 pm 23:15 Clear 60 15.3 49 9.5 69 69 NE 7 11 29.85 1011 10 16.0934 0 0
11:35 pm 23:35 Clear 59 15 49 9.3 69 69 NNE 9 15 29.86 1011 10 16.0934 0 0
11:55 pm 23:55 Clear 59 15 48 9 68 68 NNE 12 19 29.85 1011 10 16.0934 0 0

Powered by AerisWeather